Tracking 19570 objects as of 21-Feb-2019
HD Live streaming from Space Station
objects crossing your sky now

SYNCOM 2 (A 26)

Track SYNCOM 2 (A 26) now!
SYNCOM 2 (A 26) is classified as:


NORAD ID: 634
Int'l Code: 1963-031A
Perigee: 35,781.3 km
Apogee: 35,814.0 km
Inclination: 34.8 °
Period: 1,436.3 minutes
Semi major axis: 42168 km
RCS: 50.1187 m2 (large)
Launch date: July 26, 1963
Source: United States (US)
Launch site: AIR FORCE EASTERN TEST RANGE (AFETR)
aabbcc
Your satellite tracking list
Your tracking list is empty




NASA's NSSDC Master Catalog

Two Line Element Set (TLE):
1   634U 63031A   19047.79210317 -.00000159 +00000-0 +00000-0 0  9993
2   634 034.8448 337.5154 0003877 131.8120 045.1779 01.00257888203507
Source of the keplerian elements: AFSPC